Location: *
(60.1759°S, 155.0663°W)
Time: 23:35:54
(UTC+00:00)

Cosmos 1812 - Pass Details

Date: 17 September 2019
Orbit: 516 x 523 km, 82.5° (Epoch: 14 October)

Event Time Altitude Azimuth Distance (km) Brightness Sun altitude
Rises 14:03:48 0° 198° (SSW) 2,705 6.5 -17.6°
Reaches altitude 10° 14:06:04 10° 206° (SSW) 1,809 5.5 -17.4°
Maximum altitude 14:09:44 37° 273° (W) 848 3.3 -17.0°
Enters shadow 14:10:02 37° 284° (WNW) 857 3.3 -16.9°
